Location: STAR School
(35.3054°N, 111.2976°W)
Time: 20:29:33
(UTC-07:00)

deb Explorer IX - Pass Details

Date: 25 May 2019
Orbit: 536 x 1115 km, 38.8° (Epoch: 23 June)

Event Time Altitude Azimuth Distance (km) Brightness Sun altitude
Exits shadow 03:13:10 33° 295° (WNW) 915 ? -20.7°
Maximum altitude 03:14:41 53° 355° (N) 663 ? -20.5°
Drops below altitude 10° 03:18:48 10° 73° (ENE) 1,861 ? -19.9°
Sets 03:21:13 0° 78° (ENE) 2,819 ? -19.5°
